User: anonymous   Login
Location: Delta State University
(33.7460°N, 90.7320°W)
Time: 11:45:06
(UTC-05:00)
Language:

Iridium 13 - Orbit

View from above orbital plane
View from above orbital plane
View from above satellite
View from above satellite

Ground track
Ground track

The orbit data is extracted from the following two-line orbital elements,

1 24840U 97030E   15181.54372823  .00000205  00000-0  66160-4 0  9997
2 24840 086.3971 290.1653 0002333 090.5072 333.4731 14.34216173944085
Epoch (UTC): 30 June 2015 13:02:58
Eccentricity: 0.0002333
inclination: 86.3971°
perigee height: 776 km
apogee height: 779 km
right ascension of ascending node: 290.1653°
argument of perigee: 90.5072°
revolutions per day: 14.34216173
mean anomaly at epoch: 333.4731°
orbit number at epoch: 94408

The dashed part of the orbit path shows where the satellite is in the earth's shadow,  

DLR